This is the latest recevied weather packets stored in our database for station/object W8CEN. If no packets are shown the sender has not sent any weather packets the latest 1 day(s).
| Time | Temp. | Humidity | Pressure | Rain* | Wind** | Luminosity | Snow |
|---|---|---|---|---|---|---|---|
| 1778070098 | 7.78° C | 93% | 989.2 hPa | 0 mm | - | 106 W/m² | - |
| 1778067980 | 7.22° C | 96% | 988.8 hPa | 0 mm | - | 53 W/m² | - |
| 1778067678 | 7.22° C | 96% | 988.8 hPa | 0 mm | - | 49 W/m² | - |
| 1778067376 | 7.22° C | 96% | 988.9 hPa | 0 mm | - | 46 W/m² | - |
| 1778065862 | 6.67° C | 97% | 988.3 hPa | 0 mm | - | 11 W/m² | - |
| 1778064650 | 6.67° C | 97% | 987.7 hPa | 0 mm | - | 5 W/m² | - |
| 1778063439 | 7.22° C | 98% | 987.5 hPa | 0 mm | - | 1 W/m² | - |
| 1778061323 | 7.22° C | 98% | 987.3 hPa | 0 mm | - | 0 W/m² | - |
| 1778060717 | 7.22° C | 98% | 987 hPa | 0 mm | - | 0 W/m² | - |
| 1778057690 | 7.22° C | 98% | 987.9 hPa | 1.27 mm | - | 0 W/m² | - |
| 1778057386 | 6.67° C | 98% | 987.6 hPa | 1.27 mm | - | 0 W/m² | - |
| 1778057083 | 6.67° C | 98% | 987.5 hPa | 0 mm | - | 0 W/m² | - |
| 1778056779 | 7.22° C | 98% | 987.8 hPa | 0 mm | - | 0 W/m² | - |
| 1778056477 | 7.22° C | 98% | 988 hPa | 0 mm | - | 0 W/m² | - |
| 1778055871 | 7.22° C | 98% | 987.6 hPa | 1.78 mm | - | 0 W/m² | - |
| 1778055265 | 7.22° C | 98% | 987 hPa | 0 mm | - | 0 W/m² | - |
| 1778054962 | 7.22° C | 98% | 987.4 hPa | 0 mm | - | 0 W/m² | - |
| 1778054658 | 7.22° C | 98% | 987.5 hPa | 0 mm | - | 0 W/m² | - |
| 1778054054 | 7.22° C | 98% | 987.2 hPa | 0 mm | - | 0 W/m² | - |
| 1778053145 | 7.22° C | 98% | 987.4 hPa | 1.78 mm | - | 0 W/m² | - |
| 1778052843 | 7.22° C | 98% | 987.5 hPa | 3.56 mm | - | 0 W/m² | - |
| 1778052237 | 7.78° C | 98% | 987.7 hPa | 0 mm | - | 0 W/m² | - |
| 1778051026 | 7.22° C | 98% | 987.7 hPa | 1.27 mm | - | 0 W/m² | - |
| 1778050723 | 7.22° C | 98% | 987.5 hPa | 1.27 mm | - | 0 W/m² | - |
| 1778049510 | 7.22° C | 98% | 987.2 hPa | 1.78 mm | - | 0 W/m² | - |
* Rain latest hour (hover to see other rain measurements)
** Current wind speed in m/s (hover to see current wind gust speed)